This is the latest recevied weather packets stored in our database for station/object WA0GMH-1. If no packets are shown the sender has not sent any weather packets the latest 10 day(s).
| Time | Temp. | Humidity | Pressure | Rain* | Wind** | Luminosity | Snow |
|---|---|---|---|---|---|---|---|
| 1777601718 | 10° C | 11% | 1017.9 hPa | 0 mm | - | - | - |
| 1777601316 | 10° C | 10% | 1017.7 hPa | 0 mm | - | - | - |
| 1777600914 | 10.56° C | 9% | 1017.6 hPa | 0 mm | - | - | - |
| 1777600511 | 10.56° C | 7% | 1017.7 hPa | 0 mm | - | - | - |
| 1777600109 | 11.11° C | 5% | 1017.9 hPa | 0 mm | - | - | - |
| 1777599707 | 11.67° C | 3% | 1017.8 hPa | 0 mm | - | - | - |
| 1777599305 | 11.67° C | 2% | 1017.8 hPa | 0 mm | - | - | - |
| 1777598902 | 11.67° C | 2% | 1017.7 hPa | 0 mm | - | - | - |
| 1777598500 | 12.22° C | 2% | 1017.5 hPa | 0 mm | - | - | - |
| 1777598098 | 12.22° C | 2% | 1017.6 hPa | 0 mm | - | - | - |
| 1777597696 | 12.78° C | 1% | 1017.6 hPa | 0 mm | - | - | - |
| 1777597293 | 12.78° C | 100% | 1017.5 hPa | 0 mm | - | - | - |
| 1777596891 | 13.33° C | 85% | 1017.4 hPa | 0 mm | - | - | - |
| 1777596489 | 13.33° C | 84% | 1017.5 hPa | 0 mm | - | - | - |
| 1777596087 | 13.33° C | 84% | 1017.6 hPa | 0 mm | - | - | - |
| 1777595684 | 13.89° C | 83% | 1017.5 hPa | 0 mm | - | - | - |
| 1777595282 | 13.89° C | 81% | 1017.4 hPa | 0 mm | - | - | - |
| 1777594880 | 14.44° C | 81% | 1017.5 hPa | 0 mm | - | - | - |
| 1777594478 | 14.44° C | 80% | 1017.5 hPa | 0 mm | - | - | - |
| 1777594075 | 15° C | 80% | 1017.7 hPa | 0 mm | - | - | - |
| 1777593673 | 15° C | 79% | 1017.8 hPa | 0 mm | - | - | - |
| 1777593271 | 15° C | 79% | 1017.7 hPa | 0 mm | - | - | - |
| 1777592869 | 15° C | 78% | 1017.8 hPa | 0 mm | - | - | - |
| 1777592466 | 15.56° C | 79% | 1018 hPa | 0 mm | - | - | - |
| 1777592064 | 15° C | 79% | 1018 hPa | 0 mm | - | - | - |
* Rain since midnight (hover to see other rain measurements)
** Current wind speed in m/s (hover to see current wind gust speed)